Regional Weather Roundup
Issued by NWS

Home | Current Version | Previous Version | Graphics & Text | Print | Product List | Glossary Off
Versions: 1 2 3 4 5 6 7 8 9 10 11 12 13 14 15 16 17 18 19 20 21 22 23 24 25 26 27 28 29 30 31 32 33 34 35 36 37 38 39 40 41 42 43 44 45 46 47 48 49 50

000
ASUS45 KTFX 090610
RWRMT
MONTANA REGIONAL WEATHER ROUNDUP
NATIONAL WEATHER SERVICE GREAT FALLS MT
1100 PM MST MON FEB 08 2016

NOTE: "FAIR" INDICATES FEW OR NO CLOUDS BELOW 12000 FEET WITH NO
SIGNIFICANT WEATHER AND/OR OBSTRUCTIONS TO VISIBILITY.

MTZ001>007-043-090700-
WEST OF THE DIVIDE

CITY           SKY/WX    TMP DP  RH WIND       PRES   REMARKS
KALISPELL      CLOUDY    27  24  89 CALM      30.53R
MISSOULA       CLEAR     28  23  81 CALM      30.55F
BUTTE          CLOUDY    24  22  91 SE3       30.51R
MULLAN PASS    CLEAR     39  30  70 W3        30.51S
ANACONDA         N/A     30  27  86 CALM      30.51S
DEER LODGE       N/A     30  28  93 NW3       30.53R
HAMILTON         N/A     30  27  86 SE5       30.54S
LIBBY            N/A     25  23  93 CALM      30.55R
PLAINS           N/A     30  25  82 CALM      30.51S
$$

MTZ008-052>055-090700-
SOUTHWEST MONTANA

CITY           SKY/WX    TMP DP  RH WIND       PRES   REMARKS
BOZEMAN        CLOUDY    30  26  85 S3        30.47R
DILLON         CLOUDY    31  25  78 SW6       30.49R WCI  25
ENNIS          CLEAR     34  27  75 S9G23     30.55S WCI  26
TWIN BRIDGES     N/A     28  22  78 SE7       30.41F WCI  21
$$

MTZ009-010-012-014-046-048-049-054-090700-
EAST SLOPES AND CENTRAL MONTANA

CITY           SKY/WX    TMP DP  RH WIND       PRES   REMARKS
CUT BANK       PTCLDY    43  30  60 W20       30.29F
GREAT FALLS    CLOUDY    38  29  70 SW15      30.33R WCI  29
MALMSTROM AFB  MOCLDY    38  31  74 SW14      30.33R WCI  30
HELENA         CLOUDY    38  30  73 N3        30.42R
CHOTEAU          N/A     48  30  49 VRB6G14   30.32S
CONRAD           N/A     39  31  73 NW3       30.29S
$$

MTZ011-013-016-021-045-047-050-051-090700-
NORTH CENTRAL MONTANA

CITY           SKY/WX    TMP DP  RH WIND       PRES   REMARKS
HAVRE          CLEAR     32  28  85 SW9       30.27F WCI  24
LEWISTOWN      CLEAR     38  27  64 SW13      30.32S WCI  30
N BAR RANCH      N/A     41  28  60 NW13G20   30.30S
CHINOOK          N/A     25  21  86 CALM      30.26S
$$

MTZ017>020-022>027-061-062-090700-
NORTHEAST MONTANA

CITY           SKY/WX    TMP DP  RH WIND       PRES   REMARKS
GLASGOW        CLEAR     29  19  66 N6        30.23R WCI  23
JORDAN           N/A     31  28  89 W7        30.24S WCI  24
SIDNEY         CLOUDY    30  18  59 SW7       30.24F WCI  23
WOLF POINT     PTCLDY    23  19  85 NW5       30.24S
PLENTYWOOD       N/A     28  21  74 SE3       30.22S
POPLAR           N/A     25  19  80 CALM      30.25R
SCOBEY           N/A     25  13  60 CALM      30.18
$$

MTZ028>42-056>058-090700-
SOUTHCENTRAL AND SOUTHEAST MONTANA

CITY           SKY/WX    TMP DP  RH WIND       PRES   REMARKS
BAKER          CLEAR     21  14  74 CALM      30.24S
BILLINGS       CLEAR     44  28  53 W15       30.31S
LIVINGSTON     CLOUDY    47  26  44 SW25G31   30.39F
MILES CITY     CLEAR     28  24  85 W7        30.24S WCI  21
EKALAKA          N/A     28  12  51 S1        30.18S
FORSYTH          N/A     37  27  65 W3        30.26S
LAUREL           N/A     44  23  43 SW6       30.28R
ROUNDUP          N/A     40  27  60 S7        30.19R
$$

REGIONAL REPORTS...DAKOTAS

CITY           SKY/WX    TMP DP  RH WIND       PRES   REMARKS
WILLISTON      CLOUDY    30  22  72 CALM      30.26S
MINOT          CLOUDY    25  13  60 NW6       30.26F WCI  18
DICKINSON      CLOUDY    28  17  63 W5        30.21F
BEACH          MOCLDY    23  18  80 S5        30.26S
CROSBY         CLOUDY    25  25 100 SE5       30.27S
TIOGA          CLOUDY    25  25 100 E5        30.29S
WATFORD CITY   CLOUDY    27  21  80 CALM      30.24F
BISMARCK       CLOUDY    25  14  63 N8        30.27F WCI  16
GRAND FORKS    CLEAR      6   0  76 NW10      30.25F WCI  -9
FARGO          CLEAR      8   1  73 N17       30.22F WCI -10
BUFFALO SD       N/A     29  13  51 NW8       30.17R WCI  21
RAPID CITY     CLOUDY    32  19  58 N3        30.22F
$$

REGIONAL REPORTS...WYOMING/IDAHO/WASHINGTON

CITY           SKY/WX    TMP DP  RH WIND       PRES   REMARKS
GILLETTE       CLOUDY    36  27  69 W14       30.25F WCI  27
SHERIDAN       CLEAR     37  27  67 W7        30.29R WCI  32
BUFFALO WY     CLEAR     42  26  53 N7        30.28F
CODY           CLOUDY    28  19  69 CALM      30.34S
YELLOWSTONE LA   N/A     15  11  83 CALM      30.57S
IDAHO FALLS    FOG       17  15  92 CALM      30.64S VSB 1/4
SALMON         CLOUDY    14  12  92 SE5       30.66S
BOISE          CLEAR     34  30  85 E6        30.64R WCI  29
SPOKANE        PTCLDY    36  30  79 NE5       30.51F
$$

REGIONAL REPORTS...ALBERTA

CITY           SKY/WX    TMP DP  RH WIND       PRES   REMARKS
EDMONTON       CLOUDY    37  27  65 SW8       30.17F WCI  31
CALGARY        PTCLDY    45  23  42 W5        30.24S
LETHBRIDGE     CLEAR     48  30  49 W25G35    30.25S
MEDICINE HAT   CLEAR     27  25  93 SE2       30.25F
WATERTON GATE    N/A     45  28  53 SW30G40     N/A
CARDSTON         N/A     50  25  37 W17G28      N/A
MILK RIVER       N/A     41  28  60 W16         N/A
ONEFOUR          N/A     39  30  70 NW18        N/A  WCI  30
$$

REGIONAL REPORTS...SASKATCHEWAN

CITY           SKY/WX    TMP DP  RH WIND       PRES   REMARKS
SWIFT CURRENT  CLOUDY    30  25  80 W8        30.21R WCI  23
SASKATOON      CLOUDY    19  18  93 W5        30.23S
CYPRESS HILLS    N/A     36  23  60 N5          N/A
VAL MARIE        N/A     27  23  86 NW1         N/A
ROCKGLEN         N/A     30  23  74 NW8         N/A  WCI  23
$$



USA.gov is the U.S. government's official web portal to all federal, state and local government web resources and services.